SCP
0 0 0 0 0 0 0 0 0 0 0 0 0 0 0 0 0 0 0 0 0 0 0 0 0 0 0 0 0 0 0 0 0 0 0 0 0 0
0 0 0 0 0 0 0 0 0 0 0 0 0 0 0 0 0 0 0 0 0 0 0 0 0 0 0 0 0 0 0 0 0 0 0 0 0 0
0 0 0 0 0 0 0 0 0 0 0 0 0 0 0 0 0 0 0 0 0 0 0 0 0 0 0 0 0 0 0 0 0 0 0 0 0 0
0 0 0 0 0 0 0 0 0 0 0 0 0 0 0 0 0 0 0 0 0 0 0 0 0 0 0 0 0 0 0 0 0 0 0 0 0 0
0 0 0 0 0 0 0 0 0 0 0 0 0 0 0 0 0 0 0 0 0 0 0 0 0 0 0 0 0 0 0 0 0 0 0 0 0 0
0 0 0 0 0 0 0 0 0 0 0 0 0 0 0 0 0 0 0 0 0 0 0 0 0 0 0 0 0 0 0 0 0 0 0 0 0 0
0 0 0 0 0 0 0 0 0 0 0 0 0 0 0 0 0 0 0 0 0 0 0 0 0 0 0 0 0 0 0 0 0 0 0 0 0 0
0 0 0 0 0 0 0 0 0 0 0 0 0 0 0 0 0 0 0 0 0 0 0 0 0 0 0 0 0 0 0 0 0 0 0 0 0 0
0 0 0 0 0 0 0 0 0 0 0 0 0 0 0 0 0 0 0 0 0 0 0 0 0 0 0 0 0 0 0 0 0 0 0 0 0 0
0 0 0 0 0 0 0 0 0 0 0 0 0 0 0 0 0 0 0 0 0 0 0 0 0 0 0 0 0 0 0 0 0 0 0 0 0 0
0 0 0 0 0 -0 -0 0 0 0 0 0 0 0 0 0 0 0 0 0 0 0 0 0 0 0 0 0 0 0 0 0 0 0 0 0 0 0
0 0 0 0 0 -0 -0 -0 0 0 0 0 0 0 0 0 0 0 0 0 0 0 0 0 0 0 0 0 0 0 0 0 0 0 0 0 0 0
0 0 0 0 0 0 -0 -0 0 0 0 0 0 0 0 0 0 0 0 0 0 0 0 0 0 0 0 0 0 0 0 0 0 0 0 0 0 0
0 0 0 0 0 0 0 0 0 0 0 0 0 0 0 0 0 0 0 0 0 0 0 0 0 0 0 0 0 0 0 0 0 0 0 0 0 0
0 0 0 0 0 0 0 0 0 0 0 0 0 0 0 0 0 0 0 0 0 0 0 0 0 0 0 0 0 0 0 0 0 0 0 0 0 0
0 0 0 0 0 0 0 0 0 0 0 0 0 0 0 0 0 0 0 0 0 0 0 0 0 0 0 0 0 0 0 0 0 0 0 0 0 0
0 0 0 0 0 0 0 0 0 0 0 0 0 0 0 0 0 0 0 0 0 0 0 0 0 0 0 0 0 0 0 0 0 0 0 0 0 0
0 0 0 0 0 0 0 0 0 0 0 0 0 0 0 0 0 0 0 0 0 0 0 0 0 0 0 0 0 0 0 0 0 0 0 0 0 0
0 0 0 0 0 0 0 0 0 0 0 0 0 0 0 0 0 0 0 0 0 0 0 0 0 0 0 0 0 0 0 0 0 0 0 0 0 0
-0 0 0 0 0 0 0 0 0 0 0 0 0 0 0 0 0 0 0 0 0 0 0 0 0 0 0 0 0 0 0 0 0 0 0 0 0 0
-0 0 0 0 0 0 0 0 0 0 0 0 0 0 0 0 0 0 0 0 0 0 0 0 0 0 0 0 0 0 0 0 0 0 0 0 0 0
-0 0 0 0 0 0 0 0 0 0 0 0 0 0 0 0 0 0 0 0 0 0 0 0 0 0 0 0 0 0 0 0 0 0 0 0 0 0
-0 -0 0 0 0 0 0 0 0 0 0 0 0 0 0 0 0 0 0 0 0 0 0 0 0 0 0 0 0 0 0 0 0 0 0 0 0 0
Wind_Speed
3 3 3 3 2 2 3 3 3 3 5 4 3 3 3 3 5 5 5 8 10 10 11 11 11 11 11 11 11 11 10 10 10 11 12 13 13 13
3 3 3 2 2 2 2 2 3 3 4 4 4 4 4 4 5 5 5 9 10 10 11 11 11 11 12 11 11 11 11 11 11 11 12 13 13 13
3 3 4 3 2 2 2 2 2 2 4 5 3 3 3 4 3 3 4 5 5 10 11 11 11 11 12 11 11 11 11 11 11 11 11 12 12 12
3 3 4 2 3 2 2 3 3 3 3 5 4 3 3 4 3 4 4 4 4 8 11 11 11 11 11 11 11 11 11 11 10 10 10 10 11 11
3 3 3 2 3 3 3 3 3 3 2 3 4 3 3 2 2 3 3 3 4 5 8 9 10 10 10 11 11 11 10 11 10 10 10 10 10 11
3 3 3 3 4 4 3 4 3 3 2 2 3 3 3 3 1 2 3 2 3 3 4 5 6 8 10 11 11 11 11 11 10 10 10 10 9 10
3 3 4 4 5 4 3 3 3 2 2 2 3 2 3 2 2 2 3 3 3 2 2 3 3 3 5 7 9 11 11 11 11 10 11 11 10 10
4 4 4 4 5 5 6 5 4 4 4 3 3 3 5 4 3 3 2 2 3 2 1 3 2 3 4 4 8 11 11 11 11 11 11 10 10 10
4 4 4 4 4 4 5 5 5 6 7 5 5 6 5 5 3 3 3 3 4 3 1 3 2 4 4 5 9 11 11 11 11 11 11 11 10 10
4 4 4 5 5 4 3 4 5 5 5 4 6 7 6 5 4 4 4 4 4 3 2 3 3 3 4 3 7 10 11 11 11 11 11 12 11 10
4 3 3 4 6 5 3 4 5 6 6 6 6 7 8 8 5 2 2 2 3 3 2 2 2 2 3 3 5 8 10 11 11 11 12 12 11 9
4 4 4 4 5 4 2 3 4 6 5 5 5 5 5 6 6 4 4 3 2 3 2 2 2 1 2 2 2 2 4 7 9 10 11 11 10 5
3 3 3 5 5 5 3 3 5 5 4 4 4 4 4 3 4 3 4 4 4 4 3 2 2 2 2 2 2 2 3 3 3 4 8 10 10 8
3 3 4 6 6 6 4 5 6 5 2 2 3 3 3 4 4 3 4 4 5 6 5 3 3 3 2 2 3 2 2 3 3 3 3 5 7 9
3 5 6 8 7 5 5 6 4 2 1 2 2 3 3 3 3 3 3 3 3 4 4 3 3 3 2 3 3 2 2 2 3 3 3 4 4 4
3 5 6 6 5 5 5 3 2 1 1 2 2 3 2 2 3 2 2 2 2 3 4 3 3 3 2 3 3 3 3 2 2 3 3 3 3 4
2 2 2 3 3 3 3 3 2 2 2 2 2 2 3 3 3 2 2 1 1 3 3 3 2 2 3 3 2 3 3 3 3 2 2 3 3 4
1 2 3 3 3 3 3 3 3 2 2 2 2 2 3 3 3 3 2 1 2 3 3 2 1 1 2 2 3 3 2 2 2 2 2 2 3 2
1 2 2 3 3 3 2 2 2 3 2 2 2 3 3 3 3 3 3 2 2 3 3 2 1 0 1 3 3 2 2 2 1 1 1 2 2 2
1 2 2 3 3 3 3 2 2 2 2 2 2 3 3 3 3 3 3 3 3 3 3 2 2 2 2 3 2 3 2 2 1 1 1 1 1 1
2 2 2 2 2 3 3 3 2 2 3 3 3 3 3 3 3 3 3 4 3 2 3 3 4 3 1 0 1 2 3 2 1 1 1 1 1 0
1 2 2 2 2 2 2 2 3 3 3 3 3 3 3 3 3 4 3 3 3 2 3 3 3 2 1 0 1 2 2 3 2 2 1 2 3 3
1 1 2 2 2 2 2 3 3 3 3 3 3 3 3 3 3 3 3 2 2 3 3 3 3 2 1 1 1 1 2 2 2 2 3 4 2 3
Wind_Direction
232 231 233 245 233 227 216 201 207 266 279 275 278 273 258 241 240 232 231 240 239 239 238 238 238 237 235 235 236 238 239 240 244 245 242 241 242 238
232 231 244 250 246 240 233 225 210 214 255 266 258 267 269 261 247 231 230 245 245 241 240 241 239 235 235 235 237 236 236 238 242 245 245 241 238 234
248 231 245 246 250 257 247 237 231 209 246 275 272 273 267 258 263 247 241 236 243 244 243 242 240 237 236 234 235 236 237 239 242 246 247 240 234 230
256 247 253 258 258 263 256 253 248 230 226 265 282 282 271 264 255 255 258 248 242 247 245 243 239 236 234 232 233 234 237 237 239 244 246 240 230 227
250 244 249 252 263 266 257 256 257 257 232 243 271 278 278 279 275 274 269 264 256 249 245 243 241 238 235 232 231 232 233 235 237 240 239 235 229 226
255 244 244 240 244 254 260 256 256 259 252 252 271 284 282 281 263 268 288 282 270 266 255 249 245 245 242 237 235 234 232 234 236 239 233 229 227 225
283 270 262 264 257 251 257 252 247 245 255 258 270 286 288 294 274 254 269 286 281 256 250 258 248 247 246 240 238 235 233 232 232 234 232 225 224 224
280 282 280 271 277 274 271 262 238 229 241 241 251 260 266 265 260 262 262 280 283 264 215 266 240 247 249 238 235 232 231 231 231 231 231 227 223 222
269 271 282 286 283 272 281 285 275 260 239 228 240 250 251 251 247 260 254 246 252 245 211 269 254 253 252 247 236 233 233 232 230 230 228 228 225 222
268 258 262 276 281 278 280 291 288 283 267 245 237 248 247 245 231 237 247 260 268 256 198 247 263 258 262 252 242 235 231 229 229 227 227 227 225 224
295 285 269 267 288 300 288 285 295 295 294 284 275 269 268 265 253 243 252 241 273 272 210 212 255 268 266 258 253 241 233 232 232 231 228 227 226 224
309 301 287 280 294 302 273 270 288 292 304 315 311 304 288 276 263 230 226 232 253 270 236 199 237 244 289 273 253 247 242 241 237 235 230 227 222 215
308 307 302 305 304 306 297 263 269 285 295 294 298 302 304 295 282 256 226 217 231 249 234 195 227 218 223 274 284 247 231 238 232 236 231 225 218 205
290 295 300 316 317 313 307 301 298 302 294 294 298 296 298 296 289 280 260 242 235 241 242 211 222 223 228 256 272 276 252 231 218 228 225 220 221 219
286 302 310 315 318 312 309 314 318 315 306 304 294 286 278 277 291 303 302 291 277 264 256 231 219 232 227 234 245 252 265 260 223 223 225 214 209 200
311 313 315 315 315 307 313 320 316 295 268 266 276 282 294 305 304 298 295 308 314 305 296 270 231 217 239 244 232 247 243 243 244 230 223 228 223 211
315 328 339 339 337 333 332 329 330 340 326 303 296 306 310 311 302 303 297 301 287 289 302 306 288 254 236 228 240 251 254 256 248 234 210 230 240 226
39 346 333 329 320 318 323 324 328 330 322 323 320 313 311 313 311 312 305 289 282 279 284 288 314 333 332 292 224 229 252 258 265 250 214 216 247 236
52 326 319 317 315 313 315 311 311 314 321 330 323 318 316 318 320 319 321 315 297 289 286 289 288 274 283 292 297 247 222 255 264 275 253 223 234 245
1 311 313 317 321 319 319 312 311 327 338 330 322 321 321 318 318 319 317 309 305 306 309 308 284 245 232 245 267 294 273 232 228 246 259 260 266 278
324 317 315 327 336 336 338 335 334 335 336 333 331 329 325 324 324 322 319 320 318 312 309 299 282 271 252 83 330 305 307 295 220 210 215 204 241 275
318 331 330 336 339 341 345 353 355 351 347 342 332 331 329 327 322 321 319 322 320 312 302 299 312 339 24 243 272 285 303 320 330 358 356 199 184 192
315 332 331 338 345 353 358 4 6 351 345 336 330 327 325 321 316 315 315 319 326 328 328 328 336 345 336 285 283 294 307 320 333 354 342 338 242 207